Content
SEND FEEDBACK

Daily
Averages
Monthly
Summary
United States of America

WILMINGTON, NORTH CAROLINA


Home > North America > United States > North Carolina
Elevation: 21 meters     Latitude: 34 16N     Longitude: 077 54W

WEATHER
 
SELECT A DAY
Number of Records: 208,995;   Date Range: 1/1/95 - 8/30/14
 
SHARE

PRINT THIS DATA

[ ← Previous Day ]
WEATHER ALMANAC - 24 JANUARY, 2013
[ Next Day → ]
[ °F ]   °C
Weather ElementAverageHighLow
Temperature4.3 °C8.9 °C (8:53 am)-3.9 °C (11:53 pm)
Dewpoint-5.6 °C2.8 °C (7:53 am)-13.9 °C (8:53 pm)
Humidity50.4 %71 % (1:53 am)35 % (1:53 pm)
Barometer1024.4 hPa1033.5 hPa (11:53 pm)1016.3 hPa (4:53 am)
Wind Speed21.7 km/h33.3 km/h (12:53 pm)
Wind Gust46.3 km/h (10:53 am)
Weather ElementAverage
Visibility16.1 km
Wind DirectionSSE (147.4 °)

Weather ElementTotal
Precipitation---
Heating Degree Days15.8 (Base 18.3)
Averaged from 23 records on 24 January, 2013
WEATHER CONDITIONS BREAKOUT
WIND DIRECTION BREAKOUT
WEATHER BY HOUR - 24 JANUARY, 2013
[ °F ]   °C
Local TimeTemperatureDewpointHumidityBarometerVisibilityWind DirectionWind SpeedGust SpeedPrecipitationEventsConditions
1:53 AM6.7 °C1.7 °C71 %1018.6 hPa16.1 kmSW (220°)14.8 km/hClear
2:53 AM7.2 °C0.6 °C63 %1017.9 hPa16.1 kmSW (220°)20.4 km/hClear
3:53 AM7.8 °C0.6 °C61 %1016.9 hPa16.1 kmWSW (240°)16.7 km/hClear
4:53 AM7.8 °C1.1 °C63 %1016.3 hPa16.1 kmWSW (250°)22.2 km/hClear
5:53 AM7.8 °C1.7 °C66 %1016.6 hPa16.1 kmWSW (250°)20.4 km/hClear
6:53 AM7 °C2 °C71 %1016.9 hPa16.1 kmWest (260°)20.4 km/hClear
7:53 AM8.3 °C2.8 °C68 %1017.9 hPa16.1 kmWest (270°)22.2 km/hClear
8:53 AM8.9 °C2.8 °C66 %1019 hPa16.1 kmWNW (290°)20.4 km/hClear
9:53 AM7.2 °C-0.6 °C58 %1021 hPa16.1 kmNNW (330°)31.5 km/h44.4 km/hPartly Cloudy
10:53 AM8.3 °C-4.4 °C41 %1022.4 hPa16.1 kmNorth (360°)25.9 km/h46.3 km/hClear
11:53 AM7.2 °C-5.6 °C40 %1023 hPa16.1 kmNorth (10°)31.5 km/h42.6 km/hClear
12:53 PM7.2 °C-7.2 °C36 %1023.7 hPa16.1 kmNorth (350°)33.3 km/h44.4 km/hClear
1:53 PM7.8 °C-6.7 °C35 %1024.7 hPa16.1 kmNorth (10°)25.9 km/h42.6 km/hClear
2:53 PM5.6 °C-8.9 °C35 %1026.1 hPa16.1 kmNorth (10°)25.9 km/h46.3 km/hClear
3:53 PM5 °C-8.9 °C36 %1027.4 hPa16.1 kmNorth (10°)24.1 km/h35.2 km/hClear
4:53 PM2.2 °C-10 °C41 %1028.8 hPa16.1 kmNNE (30°)33.3 km/h44.4 km/hClear
5:53 PM0.6 °C-11.1 °C42 %1030.5 hPa16.1 kmNNE (20°)24.1 km/hClear
6:53 PM-0.6 °C-12.2 °C42 %1031.5 hPa16.1 kmNNE (30°)24.1 km/hClear
7:53 PM-1.7 °C-13.3 °C41 %1031.8 hPa16.1 kmENE (60°)11.1 km/hClear
8:53 PM-1.7 °C-13.9 °C40 %1032.8 hPa16.1 kmNE (40°)13 km/hClear
9:53 PM-2.8 °C-13.3 °C45 %1033.2 hPa16.1 kmNE (40°)14.8 km/hClear
10:53 PM-3.3 °C-13.3 °C47 %1033.2 hPa16.1 kmNE (40°)14.8 km/hClear
11:53 PM-3.9 °C-12.8 °C51 %1033.5 hPa16.1 kmNE (50°)7.4 km/hClear
Hourly data recorded from KILM, located 0 kilometers away from Wilmington, North Carolina







STORIES FROM OUR PARTNERS